www.pogodaiklimat.ru

Погода и климат >> Архив погоды >> Австралия >> Западная Австралия >> Хоптаун


ПОГОДА в Хоптауне

  • Прогноз погоды в Хоптауне
  • Монитор погоды в Хоптауне

АРХИВ ПОГОДЫ в Хоптауне

Время (UTC), дата Ветер
(напр.,м/с)
 
Видим.   Явления Облачность Т
(С)
Тd
(С)
f
(%)
Тe
(С)
Тes
(С)
Комфортность P
(гПа)
Po
(гПа)
Тmin
(С)
Tmax
(С)
R
(мм)
R24
(мм)
S
(см)
01 14.06 С 4 н/о н/о +12.8 +8.5 75 +11 +11 1021.8 1018.5 +6.6
03 14.06 СЗ 6 н/о н/о +15.7 +8.9 64 +14 +14 1021.5 1018.2
04 14.06 СЗ 5 н/о н/о +16.8 +8.0 56 +16 +16 1020.3 1017.0
06 14.06 З 5 н/о н/о +16.7 +9.1 61 +16 +16 1019.3 1016.0
07 14.06 З 6 н/о н/о +16.7 +8.7 59 +16 +16 1019.2 1015.9
09 14.06 З 3 н/о н/о +15.9 +8.4 61 +15 +15 1019.2 1015.9
10 14.06 СЗ 3 н/о н/о +14.3 +8.5 68 +13 +13 1019.3 1016.0
12 14.06 С 2 н/о н/о +12.2 +8.5 78 +12 +12 1020.0 1016.7
13 14.06 З 3 н/о н/о +12.7 +8.6 76 +11 +11 1020.2 1016.9 +18.1
15 14.06 З 4 н/о н/о +11.9 +8.4 79 +10 +10 1020.0 1016.7
16 14.06 З 4 н/о н/о +11.4 +7.9 79 +9 +9 1019.8 1016.5
18 14.06 З 5 н/о н/о +10.9 +7.8 81 +8 +8 1020.0 1016.7
19 14.06 З 4 н/о н/о +10.8 +8.0 83 +8 +8 1020.0 1016.7
21 14.06 З 3 н/о н/о +10.4 +8.7 89 +8 +8 1020.4 1017.1
22 14.06 З 4 н/о н/о +11.2 +9.3 88 +9 +9 1021.0 1017.7
00 15.06 З 3 н/о н/о +10.9 +8.3 84 +9 +9 1022.4 1019.1
01 15.06 З 5 н/о н/о +13.5 +9.2 75 +12 +12 1023.1 1019.8 +8.7
03 15.06 З 6 н/о н/о +16.5 +8.7 60 +15 +15 1023.1 1019.8
04 15.06 ЮЗ 7 н/о н/о +17.0 +9.2 60 +16 +16 1022.7 1019.4
06 15.06 ЮЗ 5 н/о н/о +16.7 +9.4 62 +16 +16 1022.2 1018.9
07 15.06 ЮЗ 5 н/о н/о +16.1 +11.5 74 +15 +15 1022.3 1019.0
09 15.06 ЮЗ 4 н/о н/о +15.6 +10.8 73 +15 +15 1023.1 1019.8
10 15.06 ЮЗ 3 н/о н/о +13.9 +11.8 87 +13 +13 1023.6 1020.3
12 15.06 З 3 н/о н/о +14.4 +13.3 93 +14 +14 1024.2 1020.9
13 15.06 З 3 н/о в посл. час дождь {туман} н/о +13.2 +11.8 91 +12 +12 1024.1 1020.8 +17.6
15 15.06 С 2 н/о н/о +10.6 +10.1 97 +9 +9 1023.9 1020.6
16 15.06 С 3 н/о н/о +10.1 +9.8 98 +8 +8 1023.9 1020.6
18 15.06 С 2 н/о н/о +9.3 +8.8 97 +7 +7 1023.8 1020.5
19 15.06 С 2 н/о {туман} н/о +8.6 +8.3 98 +6 +6 1023.7 1020.4
21 15.06 СВ 2 н/о н/о +7.8 +7.1 95 +6 +6 1023.0 1019.7
22 15.06 С 2 н/о н/о +8.3 +7.4 94 +6 +6 1023.2 1019.9
00 16.06 С 3 н/о н/о +9.2 +8.0 92 +7 +7 1024.0 1020.7
01 16.06 С 3 н/о н/о +11.0 +9.3 89 +9 +9 1024.4 1021.1 +7.6
03 16.06 СЗ 5 н/о н/о +16.9 +7.3 53 +16 +16 1023.9 1020.6
04 16.06 З 5 н/о н/о +17.3 +7.1 51 +17 +17 1023.2 1019.9
06 16.06 З 5 н/о н/о +17.3 +8.7 57 +17 +17 1022.2 1018.9
07 16.06 ЮЗ 5 н/о н/о +16.4 +11.1 71 +16 +16 1022.4 1019.1
09 16.06 З 4 н/о н/о +15.8 +9.0 64 +15 +15 1022.5 1019.2
10 16.06 З 3 н/о н/о +14.4 +9.0 70 +14 +14 1023.1 1019.8
12 16.06 СЗ 3 н/о н/о +13.2 +9.8 80 +12 +12 1023.9 1020.6
13 16.06 З 4 н/о н/о +13.3 +10.7 84 +12 +12 1024.2 1020.9 +18.3
15 16.06 З 5 н/о н/о +13.3 +12.7 96 +11 +11 1024.5 1021.2
16 16.06 ЮЗ 6 н/о туман местами н/о +13.0 +12.4 96 +11 +11 1024.8 1021.5
18 16.06 ЮЗ 7 н/о н/о +13.9 +9.1 73 +12 +12 1025.5 1022.2
19 16.06 ЮЗ 7 н/о {туман} н/о +14.2 +7.0 62 +12 +12 1025.8 1022.5
21 16.06 ЮЗ 6 н/о н/о +13.8 +6.9 63 +12 +12 1026.4 1023.1
22 16.06 Ю 3 н/о н/о +13.3 +7.7 69 +12 +12 1027.2 1023.9
00 17.06 ЮЗ 5 н/о н/о +12.8 +8.1 73 +11 +11 1028.4 1025.1
01 17.06 Ю 5 н/о н/о +13.9 +7.7 66 +12 +12 1029.3 1026.0 +9.3
03 17.06 Ю 5 н/о н/о +13.6 +6.9 64 +12 +12 1030.0 1026.7
04 17.06 ЮЗ 2 н/о н/о +14.1 +7.4 64 +14 +14 1029.3 1026.0
06 17.06 Ю 3 н/о н/о +14.0 +5.1 55 +13 +13 1028.6 1025.3
07 17.06 ЮВ 2 н/о н/о +14.1 +4.9 54 +14 +14 1028.9 1025.6
09 17.06 ЮВ 2 н/о н/о +13.0 +5.4 60 +13 +13 1029.2 1025.9
10 17.06 ЮВ 1 н/о н/о +12.7 +5.8 63 +14 +14 1029.4 1026.1
12 17.06 ЮВ 2 н/о н/о +11.5 +7.6 77 +11 +11 1030.0 1026.7
13 17.06 СВ 1 н/о н/о +10.7 +7.2 79 +10 +10 1029.9 1026.6 +14.9
15 17.06 СВ 2 н/о н/о +8.7 +6.5 86 +7 +7 1029.5 1026.2
16 17.06 С 2 н/о н/о +8.2 +6.2 87 +7 +7 1029.0 1025.7
18 17.06 С 2 н/о н/о +6.3 +4.9 91 +4 +4 1028.5 1025.2
19 17.06 С 1 н/о н/о +6.3 +4.8 90 +5 +5 1028.2 1024.9
21 17.06 С 2 н/о н/о +6.5 +3.5 81 +4 +4 1027.8 1024.5
22 17.06 С 2 н/о н/о +7.5 +3.7 77 +5 +5 1028.0 1024.7
00 18.06 С 3 н/о н/о +8.5 +3.9 73 +6 +6 1029.0 1025.7
01 18.06 С 3 н/о н/о +9.7 +4.3 69 +8 +8 1028.9 1025.6 +5.7
03 18.06 С 3 н/о н/о +13.3 +5.5 59 +12 +12 1027.8 1024.5
04 18.06 СЗ 4 н/о н/о +14.2 +4.8 53 +13 +13 1026.7 1023.4
06 18.06 З 5 н/о н/о +15.4 +3.5 45 +14 +14 1024.6 1021.3
07 18.06 З 5 н/о н/о +15.9 +3.0 42 +15 +15 1024.6 1021.3
09 18.06 СЗ 2 н/о н/о +12.5 +3.5 54 +12 +12 1024.7 1021.4
10 18.06 С 2 н/о н/о +10.9 +3.5 60 +10 +10 1025.0 1021.7
12 18.06 С 2 н/о н/о +8.7 +2.9 67 +7 +7 1025.4 1022.1
13 18.06 С 2 н/о н/о +8.0 +2.5 68 +6 +6 1025.3 1022.0 +16.8
15 18.06 С 2 н/о н/о +6.0 +2.5 78 +4 +4 1025.1 1021.8
16 18.06 С 3 н/о н/о +5.5 +1.8 77 +3 +3 1024.7 1021.4
18 18.06 С 2 н/о н/о +5.2 +2.0 80 +3 +3 1024.5 1021.2
19 18.06 С 2 н/о н/о +4.7 +1.9 82 +2 +2 1024.6 1021.3
21 18.06 С 3 н/о н/о +5.0 +2.4 83 +2 +2 1024.7 1021.4
22 18.06 С 2 н/о н/о +5.1 +2.3 82 +3 +3 1024.8 1021.5
00 19.06 С 3 н/о н/о +7.7 +3.2 73 +5 +5 1025.5 1022.2
01 19.06 С 3 н/о н/о +10.4 +3.9 64 +9 +9 1025.6 1022.3 +4.2
03 19.06 С 2 н/о н/о +15.8 +4.2 46 +16 +16 1024.8 1021.5
04 19.06 СЗ 2 н/о н/о +16.9 +3.2 40 +18 +18 1024.2 1020.9
06 19.06 Ю 4 н/о н/о +16.1 +6.0 51 +15 +15 1023.1 1019.8
07 19.06 ЮВ 3 н/о н/о +16.1 +6.0 51 +16 +16 1023.2 1019.9
09 19.06 ЮВ 3 н/о н/о +13.5 +6.8 64 +12 +12 1023.2 1019.9
10 19.06 ЮВ 3 н/о н/о +13.2 +7.2 67 +12 +12 1023.5 1020.2
12 19.06 СВ 2 н/о н/о +10.3 +6.8 79 +9 +9 1024.2 1020.9
13 19.06 С 2 н/о н/о +8.7 +6.0 83 +7 +7 1024.4 1021.1 +17.7
15 19.06 С 2 н/о н/о +7.4 +5.7 89 +6 +6 1024.4 1021.1
16 19.06 СВ 2 н/о н/о +6.9 +5.5 91 +5 +5 1024.0 1020.7
18 19.06 СВ 2 н/о н/о +5.5 +4.5 93 +3 +3 1024.2 1020.9
19 19.06 СВ 3 н/о н/о +5.5 +4.5 93 +2 +2 1024.1 1020.8
21 19.06 С 2 н/о н/о +3.6 +2.7 94 0 0 1024.3 1021.0
22 19.06 С 2 н/о н/о +6.4 +2.3 75 +4 +4 1024.6 1021.3
00 20.06 С 3 н/о н/о +6.8 +2.9 76 +4 +4 1024.8 1021.5
01 20.06 С 3 н/о н/о +10.1 +3.2 62 +8 +8 1025.0 1021.7 +3.5
03 20.06 С 5 н/о н/о +15.9 +0.5 35 +15 +15 1024.5 1021.2
04 20.06 СВ 5 н/о н/о +16.4 -0.3 32 +16 +16 1023.6 1020.3
06 20.06 СВ 4 н/о н/о +17.0 -3.1 25 +17 +17 1022.2 1018.9
07 20.06 ЮВ 5 н/о н/о +15.9 +4.3 46 +15 +15 1022.1 1018.8
09 20.06 В 5 н/о н/о +14.7 +4.7 51 +13 +13 1022.2 1018.9
10 20.06 В 5 н/о н/о +14.0 +5.1 55 +13 +13 1022.2 1018.9
12 20.06 В 4 н/о н/о +10.7 +4.6 66 +9 +9 1022.3 1019.0
13 20.06 В 5 н/о н/о +12.0 +6.1 67 +10 +10 1022.2 1018.9 +18.4
15 20.06 СВ 4 н/о н/о +10.2 +5.6 73 +8 +8 1021.8 1018.5
16 20.06 СВ 3 н/о н/о +8.7 +5.1 78 +7 +7 1021.2 1017.9
18 20.06 В 4 н/о н/о +7.4 +3.1 74 +4 +4 1019.7 1016.4
19 20.06 СВ 2 н/о н/о +6.5 +2.6 76 +5 +5 1019.8 1016.5
21 20.06 СВ 2 н/о н/о +7.7 +1.1 63 +6 +6 1019.1 1015.8
22 20.06 В 3 н/о н/о +8.8 +0.8 57 +7 +7 1019.1 1015.8

 

Местоположение метеостанции Хоптаун (Западная Австралия, Австралия): широта -33.93 долгота 120.13 высота над уровнем моря 27 м.

В архиве по умолчанию представлена погода в Хоптауне за последнюю неделю. Архивные данные за месяц целиком и за предыдущие месяцы, начиная с января 2011 года, Вы можете получить, выбрав интересующий диапазон дат из раскрывающегося списка и нажав кнопку "Ввод!".


*Определитесь, кто Вы:
робот инопланетянин человек

Внимание! Время в таблицах - всемирное. Для получения местного времени необходимо прибавить поправку, которая равна 8 ч.

Смотрите также архив погоды в соседних городах и на ближайших метеорологических станциях:

Погода в Мунглинап Запад (Западная Австралия, Австралия) (68 км)
Погода в Джакапе (Западная Австралия, Австралия) (95 км)
Погода в Ньюдегейте (Западная Австралия, Австралия) (150 км)
Погода в Эсперансе (Западная Австралия, Австралия) (160 км)
Погода в Эсперансе (Западная Австралия, Австралия) (162 км)
Погода в Салмон Гамс (Западная Австралия, Австралия) (174 км)
Погода на Озере Грейс (Западная Австралия, Австралия) (180 км)
Погода в Катаннинге (Западная Австралия, Австралия) (235 км)
Погода в Олбани (Западная Австралия, Австралия) (241 км)
Погода в Норсмане (Западная Австралия, Австралия) (243 км)

Пояснения к столбцам:

Ветер - указаны скорость ветра в м/с - средняя за 10 мин, порывы в срок и между сроками (в фигурных скобках) и направление, откуда дует ветер: С - северный, СВ - северо-восточный, В - восточный, ЮВ - юго-восточный, Ю - южный, ЮЗ - юго-западный, З - западный, СЗ - северо-западный.
Видимость - горизонтальная дальность видимости в метрах или километрах. При видимости от 1 до 10 км при отсутствии осадков обычно наблюдается дымка, при ухудшении видимости до 1 км и менее - туман. В сухую погоду видимость может ухудшаться дымом, пылью или мглою.
Явления - указаны атмосферные явления, наблюдавшиеся в срок или в последний час перед сроком; фигурными скобками обозначены явления, наблюдавшиеся между сроками (за 1-3 часа до срока); квадратными скобками обозначены град или гололедные отложения с указанием их диаметра в мм.
Облачность - указаны через наклонную черту общая и нижняя облачность в баллах и высота нижней границы облаков в метрах; квадратными скобками обозначены формы облаков: Ci - перистые, Cs - перисто-слоистые, Cc - перисто-кучевые, Ac - высококучевые, As - высокослоистые, Sc - слоисто-кучевые, Ns - слоисто-дождевые, Cu - кучевые, Cb - кучево-дождевые. Подробнее классификацию облаков см. в Атласе облаков (PDF).
T - Температура воздуха - температура, измеренная на высоте 2 м над землей.
Td - Температура точки росы - температура, при понижении до которой содержащийся в воздухе водяной пар достигнет насыщения.
f - Относительная влажность воздуха - влажноcть воздуха, измеренная на высоте 2 м над землей.
Te - Эффективная температура - температура, которую ощущает одетый по сезону человек в тени. Характеристика душности погоды. При расчете учитывается влияние влажности воздуха и скорости ветра на теплоощущения человека.
Tes - Эффективная температура на солнце - температура, которую ощущает человек, с поправкой на солнечный нагрев. Характеристика знойности погоды. Зависит от высоты солнца над горизонтом, облачности и скорости ветра. Ночью, в пасмурную погоду, а также при ветре 12 м/с и более поправка равна нулю.
P - Атмосферное давление - приведенное к уровню моря атмосферное давление.
Po - Атмосферное давление - измеренное на уровне метеостанции атмосферное давление.
Tmin - Минимальная температура - минимум температуры воздуха на высоте 2 м над землей.
Tmax - Максимальная температура - максимум температуры воздуха на высоте 2 м над землей.
R - Количество осадков - Количество выпавших осадков за период времени, мм. При наведении курсора мыши на число - период времени, за который выпало указанное количество осадков.
R24 - Количество осадков - Количество выпавших осадков за 24 часа, мм.
S - Снежный покров - Высота снежного покрова, см. При наведении курсора мыши на число - состояние снежного покрова и степень покрытия местности в баллах.